This demonstration page uses our WeatherBlox Daily Observations layout. Learn more.

Left ArrowRight Arrow

39.95238, -75.16362

Hourly Observations for April 2, 2015

Temp ( °F °C ) Dew Point ( °F °C ) Humidity (%) Winds ( mph kmh ) Pressure ( in mb ) Visibility ( mi km ) Precip ( " mm )
12:54 am 00:54 Clear 41 5 28 -2.2 60 60 Calm 30.23 1024 10 16 0.00 0.00
1:54 am 01:54 Clear 38 3.3 30 -1.1 73 73 S 3 6 30.24 1024 10 16 0.00 0.00
2:54 am 02:54 Clear 38 3.3 30 -1.1 73 73 SW 7 11 30.26 1025 10 16 0.00 0.00
3:54 am 03:54 Clear 38 3.3 27 -2.8 65 65 S 3 6 30.25 1025 10 16 0.00 0.00
4:54 am 04:54 Mostly Clear 38 3.3 27 -2.8 65 65 SSW 3 6 30.26 1025 10 16 0.00 0.00
5:54 am 05:54 Mostly Clear 39 3.9 28 -2.2 65 65 SSW 6 9 30.25 1024 10 16 0.00 0.00
6:54 am 06:54 Partly Cloudy 39 3.9 29 -1.7 67 67 WSW 6 9 30.28 1025 10 16 0.00 0.00
7:54 am 07:54 Mostly Sunny 41 5 32 0 70 70 SSW 6 9 30.30 1026 10 16 0.00 0.00
8:54 am 08:54 Mostly Sunny 46 7.8 32 0 58 58 SW 8 13 30.29 1026 10 16 0.00 0.00
9:54 am 09:54 Mostly Sunny 52 11.1 30 -1.1 43 43 SW 15 24 30.27 1025 10 16 0.00 0.00
10:54 am 10:54 Mostly Sunny 56 13.3 29 -1.7 36 36 SSW 13 20 30.25 1024 10 16 0.00 0.00
11:54 am 11:54 Mostly Sunny 59 15 28 -2.2 31 31 SSW 16 26 30.20 1023 10 16 0.00 0.00
12:54 pm 12:54 Mostly Sunny 62 16.7 28 -2.2 28 28 SW 22 35 30.16 1021 10 16 0.00 0.00
1:54 pm 13:54 Partly Cloudy 65 18.3 29 -1.7 26 26 SSW 25 41 30.13 1020 10 16 0.00 0.00
2:54 pm 14:54 Mostly Cloudy 66 18.9 31 -0.6 27 27 SSW 23 37 30.11 1020 10 16 0.00 0.00
3:54 pm 15:54 Mostly Cloudy 66 18.9 32 0 28 28 SW 23 37 30.08 1019 10 16 0.00 0.00
4:54 pm 16:54 Mostly Cloudy 65 18.3 31 -0.6 28 28 SSW 21 33 30.05 1018 10 16 0.00 0.00
5:54 pm 17:54 Mostly Cloudy 64 17.8 30 -1.1 28 28 SSW 20 31 30.04 1017 10 16 0.00 0.00
6:54 pm 18:54 Cloudy 63 17.2 31 -0.6 30 30 SSW 16 26 30.02 1017 10 16 0.00 0.00
7:54 pm 19:54 Cloudy 61 16.1 33 0.6 35 35 S 13 20 29.99 1016 10 16 0.00 0.00
8:54 pm 20:54 Mostly Cloudy 59 15 33 0.6 38 38 S 13 20 29.99 1016 10 16 0.00 0.00
9:54 pm 21:54 Mostly Cloudy 58 14.4 36 2.2 44 44 SSW 10 17 29.99 1016 10 16 0.00 0.00
10:54 pm 22:54 Mostly Cloudy 58 14.4 37 2.8 46 46 SSW 10 17 29.97 1015 10 16 0.00 0.00
11:54 pm 23:54 Cloudy 58 14.4 38 3.3 48 48 SSW 10 17 29.96 1014 10 16 0.00 0.00

Powered by AerisWeather